WetterOnline ( https://www.wetteronline.de )

Wetter aktuell Niederwerth

Aktuelles Wetter: Andernach (75m)

6-stündlich | Neueste Meldungen
Ortszeit Temperatur Wetter
Di, 19.10. 2:00 6.7° C bewölkt
Mo, 18.10. 20:00 9.1° C bewölkt
Mo, 18.10. 14:00 12.1° C leicht bewölkt
Mo, 18.10. 8:00 4.0° C Nebel
Mo, 18.10. 2:00 4.0° C wolkenlos
So, 17.10. 20:00 8.8° C bedeckt
So, 17.10. 14:00 12.9° C leicht bewölkt
So, 17.10. 8:00 7.6° C bedeckt
Ortszeit Temperatur Wetter
Di, 19.10. 7:30 8.6° C leichter Regen
Di, 19.10. 7:20 8.6° C leichter Regen
Di, 19.10. 7:10 8.5° C Sprühregen
Di, 19.10. 7:00 8.5° C Sprühregen
Di, 19.10. 6:50 8.5° C Sprühregen
Di, 19.10. 6:40 8.4° C Sprühregen
Di, 19.10. 6:30 8.3° C Sprühregen
Di, 19.10. 6:00 8.0° C leichter Regen
Di, 19.10. 5:30 7.9° C Regen
Di, 19.10. 5:00 7.7° C leichter Regen
Di, 19.10. 4:30 7.4° C leichter Regen
Ortszeit Relative Feuchte Sichtweite
Di, 19.10. 2:00 96% 6 km
Mo, 18.10. 20:00 89% 9 km
Mo, 18.10. 14:00 75% 1.0 km
Mo, 18.10. 8:00 100% 0.2 km
Mo, 18.10. 2:00 99% 9 km
So, 17.10. 20:00 87% 30 km
So, 17.10. 14:00 66% 35 km
So, 17.10. 8:00 97% 15 km
Ortszeit Relative Feuchte Sichtweite
Di, 19.10. 7:30 99% 1.6 km
Di, 19.10. 7:20 99% -
Di, 19.10. 7:10 98% -
Di, 19.10. 7:00 99% 1.9 km
Di, 19.10. 6:50 99% -
Di, 19.10. 6:40 99% -
Di, 19.10. 6:30 99% 2.0 km
Di, 19.10. 6:00 98% 1.9 km
Di, 19.10. 5:30 97% 2.5 km
Di, 19.10. 5:00 97% 4.3 km
Di, 19.10. 4:30 97% 4.7 km
Ortszeit Niederschlagsmenge Niederschlagsart
Di, 19.10. 2:00 0.0 l/m2 in 6 Std. -
Mo, 18.10. 20:00 0.0 l/m2 in 12 Std. -
Mo, 18.10. 14:00 0.0 l/m2 in 6 Std. -
Mo, 18.10. 8:00 0.0 l/m2 in 12 Std. -
Mo, 18.10. 2:00 0.0 l/m2 in 6 Std. -
So, 17.10. 20:00 0.0 l/m2 in 12 Std. -
So, 17.10. 14:00 0.0 l/m2 in 6 Std. -
So, 17.10. 8:00 0.0 l/m2 in 12 Std. -
Ortszeit Niederschlagsmenge Niederschlagsart
Di, 19.10. 7:30 0.1 l/m2 in 1 Std. -
Di, 19.10. 7:20 keine Meldung -
Di, 19.10. 7:10 keine Meldung -
Di, 19.10. 7:00 0.4 l/m2 in 1 Std. Regen
Di, 19.10. 6:50 keine Meldung -
Di, 19.10. 6:40 keine Meldung -
Di, 19.10. 6:30 0.3 l/m2 in 1 Std. -
Di, 19.10. 6:00 2.7 l/m2 in 1 Std. Regen
Di, 19.10. 5:30 0.9 l/m2 in 1 Std. -
Di, 19.10. 5:00 0.1 l/m2 in 1 Std. Regen
Di, 19.10. 4:30 0.1 l/m2 in 1 Std. -
Ortszeit Stärke Spitze Richtung
km/h Bft. km/h Grad Sektor
Di, 19.10. 2:00 4 1 7 170° S
Mo, 18.10. 20:00 4 1 25 350° N
Mo, 18.10. 14:00 14 3 25 120° SO
Mo, 18.10. 8:00 6 1 7 180° S
Mo, 18.10. 2:00 4 1 7 180° S
So, 17.10. 20:00 4 1 11 200° S
So, 17.10. 14:00 4 1 11 150° SO
So, 17.10. 8:00 2 1 15 250° W
Ortszeit Stärke Spitze Richtung
km/h Bft. km/h Grad Sektor
Di, 19.10. 7:30 2 1 4 170° S
Di, 19.10. 7:20 2 1 - 170° S
Di, 19.10. 7:10 0 0 - 230° SW
Di, 19.10. 7:00 0 0 4 - -
Di, 19.10. 6:50 0 0 - 100° O
Di, 19.10. 6:40 0 0 - 170° S
Di, 19.10. 6:30 0 0 4 - -
Di, 19.10. 6:00 0 0 4 - -
Di, 19.10. 5:30 0 0 4 - -
Di, 19.10. 5:00 4 1 7 190° S
Di, 19.10. 4:30 4 1 4 170° S
Ortszeit Untergrenze Bedeckung Gattung
total tief tief mittel hoch
Di, 19.10. 2:00 4800 m 7/8 7/8 - - -
Mo, 18.10. 20:00 6600 m 8/8 7/8 - - -
Mo, 18.10. 14:00 540 m 7/8 1/8 - - -
Mo, 18.10. 8:00 <30 m 8/8 0/8 - - -
Mo, 18.10. 2:00 - 0/8 0/8 - - -
So, 17.10. 20:00 6300 m 8/8 8/8 - - -
So, 17.10. 14:00 7500 m 8/8 0/8 - - -
So, 17.10. 8:00 1500 m 8/8 8/8 - - -
Ortszeit Bedeckungsgrad in Achtel und Wolkenuntergrenze
Di, 19.10. 7:30 6(60m) 7(450m) 8(1050m)
Di, 19.10. 7:20 6(60m) 7(450m) 8(1050m)
Di, 19.10. 7:10 5(30m) 6(150m) 8(450m)
Di, 19.10. 7:00 3(60m) 7(480m) 7(1380m)
Di, 19.10. 6:50 3(60m) 7(480m) 7(1380m)
Di, 19.10. 6:40 5(60m) 7(480m) 8(1500m)
Di, 19.10. 6:30 6(60m) 7(1290m) 8(1500m)
Di, 19.10. 6:00 1(480m) 7(1440m) 7(1500m)
Di, 19.10. 5:30 3(630m) 7(1320m) 8(1500m)
Di, 19.10. 5:00 2(1020m) 5(1350m) 8(3000m)
Di, 19.10. 4:30 4(2400m) 8(3000m)
Ortszeit Luftdruck NN (hPa) Tendenz (hPa in 3 Std.)
Di, 19.10. 2:00 1024 - 0,6
Mo, 18.10. 20:00 1024 + 1,2
Mo, 18.10. 14:00 1025 - 1,3
Mo, 18.10. 8:00 1025 + 0,7
Mo, 18.10. 2:00 1024 + 0,5
So, 17.10. 20:00 1022 + 1,1
So, 17.10. 14:00 1021 - 0,6
So, 17.10. 8:00 1021 + 0,1
Ortszeit Luftdruck NN (hPa) Tendenz (hPa in 3 Std.)
Di, 19.10. 7:30 1022 - 1,0
Di, 19.10. 7:20 1022 keine Meldung
Di, 19.10. 7:10 1022 keine Meldung
Di, 19.10. 7:00 1022 - 0,9
Di, 19.10. 6:50 1022 keine Meldung
Di, 19.10. 6:40 1022 keine Meldung
Di, 19.10. 6:30 1022 - 0,9
Di, 19.10. 6:00 1022 - 1,2
Di, 19.10. 5:30 1023 - 0,9
Di, 19.10. 5:00 1023 - 0,9
Di, 19.10. 4:30 1023 - 1,0
Ortszeit Schneehöhe (cm)
Di, 19.10. 2:00 0
Mo, 18.10. 20:00 0
Mo, 18.10. 14:00 0
Mo, 18.10. 8:00 0
Mo, 18.10. 2:00 0
So, 17.10. 20:00 0
So, 17.10. 14:00 0
So, 17.10. 8:00 0
Ortszeit Schneehöhe (cm)
Di, 19.10. 7:30 0
Di, 19.10. 7:20 0
Di, 19.10. 7:10 0
Di, 19.10. 7:00 0
Di, 19.10. 6:50 0
Di, 19.10. 6:40 0
Di, 19.10. 6:30 0
Di, 19.10. 6:00 0
Di, 19.10. 5:30 0
Di, 19.10. 5:00 0
Di, 19.10. 4:30 0
Link zu dieser Seite / Seite empfehlen

Das Wetter in ...